Language: 


Des rapports , des résumés tant et plus, au choix de chacun....


Données statistiques de la station
Quotidien Rapport Mars 5, 2017 Unités:  Anglais    Métrique   les deux
« Précédent Jour
Suivant Jour »
Quotidien Hebdomadaire Mensuel Annuel Actuel
  Haut: Bas: Moyen:
Température: 48.6 °F 32 °F 44.1 °F
Pt de rosée: 46 °F 38.7 °F 41.7 °F
Humidité: 98 % 0 % 91 %
Vitesse du vent: 22.1 mph 3.1 mph 10.1 mph
Rafales: 28 mph - -
Vent:- - SW
Pression: 29.4 in 0 in -
Précipitation: 0.36 in    
Historical Graphs
 
 
Données statistiques pour Mars 5, 2017
Heure Température Point de rosée Pression Vent Vitesse du vent Refales Humidité Pluie (taux horaire)
00:03 45.1 °F 43.3 °F 29.4 in SW 13 mph 13.2 mph 93 % 0 in
00:08 45.1 °F 43.3 °F 29.4 in SW 7.2 mph 13.2 mph 93 % 0 in
00:13 45.1 °F 43.3 °F 29.4 in SW 8.1 mph 13 mph 93 % 0 in
00:18 45.1 °F 43.3 °F 29.4 in SW 8.7 mph 12.5 mph 93 % 0 in
00:23 45.1 °F 43.3 °F 29.4 in SSW 5.6 mph 12.5 mph 93 % 0 in
00:28 45.1 °F 43.3 °F 29.4 in WSW 10.7 mph 12.3 mph 93 % 0 in
00:33 45.1 °F 43.3 °F 29.4 in WSW 11 mph 12.8 mph 93 % 0 in
00:38 45.1 °F 43.3 °F 29.4 in WSW 9.8 mph 13 mph 93 % 0 in
00:44 45.1 °F 43.3 °F 29.4 in SSW 9.6 mph 13 mph 93 % 0 in
00:49 45.1 °F 43.3 °F 29.4 in SW 7.8 mph 11 mph 93 % 0 in
00:54 45.1 °F 43.3 °F 29.4 in SW 7.6 mph 13.2 mph 93 % 0 in
00:59 45.3 °F 43.5 °F 29.4 in WSW 9.6 mph 13.2 mph 93 % 0 in
01:04 45.7 °F 43.7 °F 29.4 in SW 7.8 mph 14.3 mph 93 % 0 in
01:09 45.7 °F 43.7 °F 29.4 in WSW 15.7 mph 15.7 mph 93 % 0 in
01:14 45.7 °F 43.7 °F 29.4 in SW 14.8 mph 17.9 mph 93 % 0 in
01:19 45.9 °F 43.9 °F 29.4 in SW 11.2 mph 17.9 mph 93 % 0 in
01:24 45.9 °F 43.9 °F 29.4 in SW 10.5 mph 19.9 mph 93 % 0 in
01:29 45.7 °F 43.7 °F 29.4 in SW 8.1 mph 19.9 mph 93 % 0 in
01:34 45.3 °F 43.5 °F 29.4 in SW 11 mph 13 mph 93 % 0 in
01:39 45.1 °F 43.3 °F 29.4 in WSW 7.8 mph 12.5 mph 93 % 0 in
01:44 45.1 °F 43.2 °F 29.4 in WSW 10.3 mph 13 mph 93 % 0 in
01:49 45.1 °F 43.2 °F 29.4 in WSW 11 mph 14.5 mph 93 % 0 in
01:54 45.1 °F 43.3 °F 29.4 in WSW 10.1 mph 14.5 mph 93 % 0 in
01:59 45.3 °F 43.5 °F 29.4 in SW 9.6 mph 14.8 mph 93 % 0 in
02:04 45.1 °F 43.3 °F 29.4 in SW 7.6 mph 13.2 mph 93 % 0 in
02:09 45.1 °F 43.3 °F 29.4 in SW 8.5 mph 13 mph 93 % 0 in
02:14 45.1 °F 43.2 °F 29.4 in SSW 5.4 mph 13 mph 93 % 0 in
02:19 45.1 °F 43.2 °F 29.4 in SW 10.3 mph 13 mph 93 % 0 in
02:24 45.1 °F 43.2 °F 29.4 in WSW 13.2 mph 13.2 mph 93 % 0 in
02:30 45 °F 42.6 °F 29.4 in SW 9.2 mph 14.3 mph 92 % 0 in
02:35 44.4 °F 42.3 °F 29.4 in WSW 10.5 mph 14.3 mph 92 % 0 in
02:40 44.4 °F 42.3 °F 29.4 in SW 9.8 mph 14.1 mph 92 % 0 in
02:45 44.4 °F 42.3 °F 29.4 in WSW 8.5 mph 14.1 mph 92 % 0 in
02:50 44.2 °F 41.9 °F 29.4 in SW 9.8 mph 15.2 mph 91 % 0 in
02:55 44.2 °F 41.9 °F 29.4 in SSW 8.1 mph 15.2 mph 91 % 0 in
03:00 44.2 °F 41.9 °F 29.4 in WSW 12.8 mph 13.2 mph 91 % 0 in
03:06 32 °F 42.3 °F 0 in WSW 10.3 mph 11.4 mph 0 % 0 in
03:11 44.2 °F 42.3 °F 29.4 in SW 6.5 mph 13.2 mph 92 % 0 in
03:16 44.2 °F 42.3 °F 29.4 in WSW 8.5 mph 13.2 mph 92 % 0 in
03:21 44.2 °F 42.3 °F 29.4 in SW 7.6 mph 12.3 mph 92 % 0 in
03:26 44.2 °F 42.4 °F 29.4 in SW 7.6 mph 13 mph 93 % 0 in
03:31 44.2 °F 42.3 °F 29.4 in SW 9.2 mph 13 mph 93 % 0 in
03:36 44.2 °F 42.3 °F 29.4 in SW 10.3 mph 12.8 mph 93 % 0 in
03:41 44.1 °F 42.1 °F 29.4 in SW 10.1 mph 10.7 mph 93 % 0 in
03:46 44.1 °F 42.1 °F 29.4 in SW 6.3 mph 12.3 mph 93 % 0 in
03:51 43.9 °F 41.9 °F 29.4 in WSW 8.1 mph 12.3 mph 93 % 0 in
03:56 43.9 °F 41.5 °F 29.4 in SW 7.8 mph 10.5 mph 92 % 0 in
04:01 43.9 °F 41.5 °F 29.4 in SSW 6.3 mph 10.5 mph 92 % 0 in
04:06 43.5 °F 41.5 °F 29.4 in WSW 8.7 mph 10.3 mph 92 % 0 in
04:11 43.5 °F 41 °F 29.4 in WSW 10.1 mph 11 mph 91 % 0 in
04:16 43.5 °F 41 °F 29.4 in SSW 9.4 mph 11.4 mph 91 % 0 in
04:22 43.5 °F 40.6 °F 29.4 in SSW 6.3 mph 12.3 mph 90 % 0 in
04:27 43.3 °F 40.6 °F 29.4 in SW 7.8 mph 10.1 mph 90 % 0 in
04:32 43.3 °F 40.6 °F 29.4 in SW 6.3 mph 9.6 mph 90 % 0 in
04:37 43.3 °F 40.6 °F 29.4 in SW 9.8 mph 12.5 mph 90 % 0 in
04:42 43.3 °F 40.6 °F 29.4 in SW 7.6 mph 12.5 mph 90 % 0 in
04:47 43.5 °F 40.6 °F 29.4 in SW 5.6 mph 12.5 mph 90 % 0 in
04:52 43.3 °F 40.6 °F 29.4 in SW 5.6 mph 12.5 mph 90 % 0 in
04:57 43.3 °F 40.6 °F 29.4 in SSW 6.3 mph 10.1 mph 90 % 0 in
05:02 43.2 °F 40.5 °F 29.4 in SSW 7.4 mph 8.5 mph 90 % 0 in
05:07 43.2 °F 40.5 °F 29.4 in WSW 9.2 mph 12.3 mph 90 % 0 in
05:12 43.2 °F 40.5 °F 29.4 in SW 8.7 mph 12.3 mph 90 % 0 in
05:17 43.2 °F 40.5 °F 29.4 in SW 8.9 mph 12.8 mph 90 % 0 in
05:22 43.2 °F 40.5 °F 29.4 in SSW 6.3 mph 12.8 mph 90 % 0 in
05:27 43.2 °F 40.6 °F 29.4 in WSW 6.5 mph 10.7 mph 91 % 0 in
05:32 43.2 °F 40.6 °F 29.4 in WSW 8.1 mph 10.7 mph 91 % 0 in
05:37 43.3 °F 40.8 °F 29.4 in SSW 5.4 mph 10.3 mph 91 % 0 in
05:42 43.3 °F 40.8 °F 29.4 in SSW 10.3 mph 10.3 mph 91 % 0 in
05:47 43.3 °F 40.8 °F 29.4 in SSW 8.9 mph 10.3 mph 91 % 0 in
05:52 43.3 °F 40.8 °F 29.4 in SSW 6 mph 8.9 mph 91 % 0 in
05:56 43 °F 40.3 °F 29.4 in SSW 6.5 mph 8.7 mph 90 % 0 in
06:02 42.8 °F 39.9 °F 29.4 in SSW 4.9 mph 8.7 mph 90 % 0 in
06:07 42.4 °F 39.7 °F 29.4 in SSW 5.6 mph 8.7 mph 90 % 0 in
06:12 42.3 °F 39.7 °F 29.4 in SSW 4.9 mph 7.8 mph 91 % 0 in
06:17 42.1 °F 39.6 °F 29.4 in SW 7.8 mph 7.8 mph 91 % 0 in
06:22 41.9 °F 39.4 °F 29.4 in SSW 3.1 mph 7.8 mph 91 % 0 in
06:27 41.5 °F 39 °F 29.4 in SSW 4.7 mph 6.5 mph 91 % 0 in
06:32 41.4 °F 38.8 °F 29.4 in SSW 6.5 mph 6.5 mph 91 % 0 in
06:37 41.4 °F 39.2 °F 29.4 in South 5.6 mph 6.5 mph 92 % 0 in
06:42 41.2 °F 39 °F 29.4 in South 6 mph 9.8 mph 92 % 0 in
06:47 41 °F 38.8 °F 29.4 in South 6 mph 9.8 mph 92 % 0 in
06:52 40.8 °F 38.7 °F 29.4 in South 3.1 mph 8.1 mph 92 % 0 in
06:57 40.8 °F 39 °F 29.4 in SSW 5.6 mph 8.7 mph 93 % 0 in
07:02 40.8 °F 39.2 °F 29.4 in South 6.5 mph 10.3 mph 94 % 0 in
07:07 40.8 °F 39.2 °F 29.4 in South 6.3 mph 10.3 mph 94 % 0 in
07:12 40.8 °F 39.2 °F 29.4 in SSW 7.8 mph 10.7 mph 94 % 0 in
07:17 40.8 °F 39.6 °F 29.4 in SSW 4.5 mph 10.7 mph 95 % 0 in
07:22 40.8 °F 39.6 °F 29.4 in South 6.7 mph 10.3 mph 95 % 0 in
07:27 40.8 °F 39.6 °F 29.4 in SSW 7.8 mph 13.4 mph 95 % 0 in
07:32 41 °F 39.7 °F 29.4 in South 10.1 mph 13.4 mph 95 % 0 in
07:37 41 °F 39.7 °F 29.4 in SSW 8.1 mph 12.1 mph 95 % 0 in
07:42 41.2 °F 40.1 °F 29.4 in South 5.6 mph 12.1 mph 96 % 0 in
07:47 41.4 °F 40.3 °F 29.4 in South 10.7 mph 11 mph 96 % 0 in
07:52 41.5 °F 40.5 °F 29.4 in SSW 9.4 mph 15.2 mph 96 % 0 in
07:57 41.5 °F 40.3 °F 29.4 in SSW 7.6 mph 15.2 mph 95 % 0 in
08:02 41.7 °F 40.5 °F 29.4 in South 7.4 mph 12.8 mph 95 % 0 in
08:07 41.7 °F 40.5 °F 29.4 in SSW 8.7 mph 15.2 mph 95 % 0 in
08:12 41.7 °F 40.5 °F 29.4 in SSE 7.4 mph 15.2 mph 95 % 0 in
08:17 41.7 °F 40.5 °F 29.4 in SSW 8.7 mph 12.5 mph 95 % 0 in
08:22 41.9 °F 40.6 °F 29.4 in South 10.1 mph 11.4 mph 95 % 0 in
08:27 42.3 °F 40.8 °F 29.4 in South 10.1 mph 13.2 mph 95 % 0 in
08:32 43 °F 41.5 °F 29.4 in SSW 11 mph 14.3 mph 95 % 0 in
08:37 43.2 °F 41.5 °F 29.4 in South 14.3 mph 14.8 mph 94 % 0 in
08:42 43.3 °F 41.7 °F 29.4 in SSE 7.8 mph 15.4 mph 94 % 0 in
08:47 43.3 °F 41.4 °F 29.4 in South 10.3 mph 15.4 mph 93 % 0 in
08:48 43.3 °F 41.2 °F 29.4 in SSW 12.5 mph 15.4 mph 92 % 0 in
08:53 43.5 °F 41.4 °F 29.4 in SSE 9.8 mph 15.2 mph 92 % 0 in
08:58 43.5 °F 41.5 °F 29.4 in South 8.7 mph 15.2 mph 92 % 0 in
09:03 43.9 °F 41.4 °F 29.4 in South 10.7 mph 14.8 mph 91 % 0 in
09:08 43.9 °F 41.4 °F 29.4 in SSE 9.2 mph 17.4 mph 91 % 0 in
09:13 44.1 °F 41.4 °F 29.4 in South 5.4 mph 17.4 mph 90 % 0 in
09:18 44.1 °F 41.4 °F 29.4 in SSW 11 mph 19.9 mph 90 % 0 in
09:23 44.2 °F 41.4 °F 29.4 in South 6.5 mph 19.9 mph 90 % 0 in
09:28 44.2 °F 41.4 °F 29.4 in South 12.5 mph 17 mph 89 % 0 in
09:33 45 °F 41.7 °F 29.4 in South 13.2 mph 15.4 mph 89 % 0 in
09:38 45.1 °F 42.3 °F 29.4 in South 7.6 mph 19.9 mph 89 % 0 in
09:43 45.9 °F 43 °F 29.4 in SW 10.1 mph 21.3 mph 89 % 0 in
09:48 45.9 °F 42.3 °F 29.4 in SSW 12.5 mph 21.3 mph 87 % 0 in
09:53 45.3 °F 41.2 °F 29.4 in South 15.4 mph 21 mph 85 % 0 in
09:58 45.1 °F 41 °F 29.4 in WSW 14.8 mph 21 mph 85 % 0 in
10:03 45.3 °F 41.5 °F 29.4 in South 10.3 mph 17.4 mph 86 % 0 in
10:08 45.7 °F 41.5 °F 29.4 in SSW 8.5 mph 17.4 mph 86 % 0 in
10:13 45.7 °F 41.5 °F 29.4 in South 11.2 mph 17.7 mph 86 % 0 in
10:18 45.7 °F 41.5 °F 29.4 in SSW 9.8 mph 17.7 mph 86 % 0 in
10:23 45.9 °F 41.7 °F 29.4 in South 15.4 mph 15.4 mph 86 % 0 in
10:28 45.9 °F 41.5 °F 29.4 in South 9.4 mph 17.4 mph 85 % 0 in
10:33 45.9 °F 42.1 °F 29.4 in SSW 12.8 mph 17.4 mph 86 % 0 in
10:38 45.9 °F 41.5 °F 29.4 in SSW 17.9 mph 19.2 mph 85 % 0 in
10:43 45.7 °F 41.4 °F 29.4 in SSE 14.5 mph 19.2 mph 85 % 0 in
10:48 45.7 °F 41.4 °F 29.4 in SSE 13.2 mph 22.1 mph 85 % 0 in
10:53 45.3 °F 41.2 °F 29.4 in South 17 mph 22.1 mph 85 % 0 in
10:58 45.1 °F 41 °F 29.4 in SSW 11 mph 21.9 mph 85 % 0 in
11:03 45.1 °F 41.4 °F 29.4 in South 13.6 mph 21.9 mph 86 % 0 in
11:08 45.1 °F 41.4 °F 29.4 in South 19.9 mph 19.9 mph 86 % 0 in
11:13 45 °F 40.8 °F 29.4 in SSW 20.8 mph 20.8 mph 86 % 0 in
11:18 44.2 °F 40.5 °F 29.4 in SSW 9.8 mph 20.8 mph 86 % 0 in
11:23 43.9 °F 40.3 °F 29.4 in South 10.7 mph 20.8 mph 87 % 0.02 in
11:28 43.3 °F 39.9 °F 29.4 in South 19.7 mph 22.6 mph 88 % 0.04 in
11:33 43.2 °F 40.1 °F 29.4 in SSW 14.3 mph 23 mph 89 % 0.05 in
11:38 42.8 °F 40.3 °F 29.4 in SW 11 mph 23.3 mph 91 % 0.07 in
11:43 42.3 °F 40.1 °F 29.4 in SSW 13.2 mph 26.8 mph 92 % 0.07 in
11:48 41.9 °F 39.7 °F 29.4 in SSW 9.2 mph 26.8 mph 92 % 0.13 in
11:53 41.5 °F 39.7 °F 29.4 in South 17 mph 25.3 mph 93 % 0.13 in
11:58 41.2 °F 39.4 °F 29.4 in South 12.8 mph 25.3 mph 93 % 0.17 in
12:03 41 °F 39.4 °F 29.4 in South 14.3 mph 23.3 mph 94 % 0.17 in
12:08 41 °F 39.4 °F 29.4 in SSW 13.6 mph 25.9 mph 94 % 0.19 in
12:13 40.8 °F 39.6 °F 29.4 in SSW 17.2 mph 25.9 mph 95 % 0.19 in
12:18 40.8 °F 39.6 °F 29.4 in South 17.4 mph 24.6 mph 95 % 0.19 in
12:23 40.8 °F 39.7 °F 29.4 in South 15.9 mph 24.6 mph 96 % 0.17 in
12:28 40.8 °F 39.7 °F 29.4 in South 15.4 mph 24.2 mph 96 % 0.16 in
12:33 40.8 °F 39.9 °F 29.4 in South 18.8 mph 24.2 mph 97 % 0.15 in
12:38 41 °F 40.3 °F 29.4 in South 16.1 mph 22.6 mph 97 % 0.13 in
12:43 41 °F 40.3 °F 29.4 in SSE 19.5 mph 22.6 mph 97 % 0.13 in
12:48 41.2 °F 40.5 °F 29.4 in South 11 mph 25.3 mph 97 % 0.07 in
12:53 41.4 °F 40.6 °F 29.3 in South 10.1 mph 25.3 mph 97 % 0.07 in
12:58 41.4 °F 40.6 °F 29.3 in SSW 11 mph 20.1 mph 97 % 0.03 in
13:03 41.4 °F 40.6 °F 29.3 in South 8.7 mph 21.9 mph 97 % 0.03 in
13:08 41.5 °F 40.6 °F 29.3 in SSW 13 mph 21.9 mph 97 % 0.01 in
13:13 41.5 °F 40.6 °F 29.3 in SSW 15.4 mph 23 mph 97 % 0.01 in
13:18 41.5 °F 40.6 °F 29.3 in SSW 10.7 mph 23 mph 97 % 0.02 in
13:23 41.5 °F 40.6 °F 29.3 in SSW 15.7 mph 19.9 mph 97 % 0.01 in
13:28 41.5 °F 40.6 °F 29.3 in SSW 15.2 mph 22.6 mph 97 % 0.01 in
13:33 41.5 °F 40.5 °F 29.3 in South 10.5 mph 22.6 mph 96 % 0.01 in
13:38 41.5 °F 40.5 °F 29.3 in SSW 10.7 mph 19.7 mph 96 % 0.01 in
13:43 41.7 °F 40.6 °F 29.3 in South 13.9 mph 16.1 mph 96 % 0.01 in
13:48 41.7 °F 40.6 °F 29.3 in SSW 10.1 mph 19 mph 96 % 0.01 in
13:53 41.9 °F 40.8 °F 29.3 in SSW 12.1 mph 19.5 mph 96 % 0.01 in
13:58 42.1 °F 41 °F 29.3 in SSW 10.1 mph 19.5 mph 96 % 0.01 in
14:03 42.1 °F 41 °F 29.3 in SW 7.4 mph 15.4 mph 96 % 0.01 in
14:08 42.3 °F 41.4 °F 29.3 in SSE 17 mph 17 mph 97 % 0.01 in
14:13 42.4 °F 41.5 °F 29.3 in South 14.8 mph 17.7 mph 97 % 0.01 in
14:18 42.6 °F 41.7 °F 29.3 in SW 8.7 mph 17.7 mph 97 % 0 in
14:23 42.6 °F 41.7 °F 29.3 in South 12.3 mph 19.7 mph 97 % 0 in
14:28 42.8 °F 42.1 °F 29.3 in SW 6.3 mph 19.7 mph 97 % 0 in
14:33 42.8 °F 42.1 °F 29.3 in SSW 12.3 mph 13 mph 97 % 0 in
14:38 43 °F 42.1 °F 29.3 in SSW 12.5 mph 13 mph 97 % 0 in
14:43 43.2 °F 42.3 °F 29.3 in SSW 7.4 mph 14.1 mph 97 % 0 in
14:48 43.3 °F 42.4 °F 29.3 in SSW 9.8 mph 14.1 mph 97 % 0 in
14:53 43.5 °F 42.6 °F 29.3 in South 7.4 mph 12.3 mph 97 % 0 in
14:58 44.1 °F 43.2 °F 29.3 in South 12.8 mph 12.8 mph 97 % 0 in
15:03 44.4 °F 43.7 °F 29.3 in SSW 11.9 mph 14.3 mph 97 % 0 in
15:08 45.1 °F 44.4 °F 29.3 in SSW 10.7 mph 14.3 mph 97 % 0 in
15:13 45.7 °F 44.8 °F 29.3 in SSW 11 mph 13.9 mph 97 % 0 in
15:18 45.7 °F 44.8 °F 29.3 in SSW 10.1 mph 13.9 mph 97 % 0 in
15:23 45.7 °F 44.4 °F 29.3 in SSW 6.3 mph 12.3 mph 96 % 0 in
15:28 45.9 °F 44.8 °F 29.3 in SSW 6.3 mph 12.3 mph 96 % 0 in
15:33 45.9 °F 45 °F 29.3 in SSW 8.1 mph 13.2 mph 96 % 0 in
15:38 46.2 °F 45 °F 29.3 in SW 5.6 mph 13.2 mph 95 % 0 in
15:43 46.2 °F 45 °F 29.3 in SW 5.4 mph 9.8 mph 95 % 0 in
15:44 46.2 °F 45 °F 29.3 in SSW 6.5 mph 9.8 mph 95 % 0 in
15:49 46 °F 44.4 °F 29.3 in South 6.3 mph 9.8 mph 94 % 0 in
15:54 46 °F 44.4 °F 29.3 in SSW 8.1 mph 9.8 mph 94 % 0 in
15:59 46 °F 44.4 °F 29.3 in WSW 6.5 mph 10.5 mph 94 % 0 in
16:04 46 °F 44.2 °F 29.3 in WSW 10.5 mph 10.5 mph 93 % 0 in
16:09 46.2 °F 44.4 °F 29.3 in WSW 7.4 mph 11.9 mph 93 % 0 in
16:14 46.6 °F 44.6 °F 29.3 in SW 7.8 mph 11.9 mph 93 % 0 in
16:19 46.6 °F 44.8 °F 29.3 in SW 5.6 mph 10.7 mph 93 % 0 in
16:24 46.6 °F 44.8 °F 29.3 in WSW 6.5 mph 10.7 mph 93 % 0 in
16:29 46.6 °F 44.4 °F 29.3 in SW 5.4 mph 9.2 mph 92 % 0 in
16:34 46.6 °F 44.4 °F 29.3 in SSW 5.8 mph 9.2 mph 92 % 0 in
16:39 46.6 °F 44.4 °F 29.3 in WSW 6.5 mph 11 mph 92 % 0 in
16:44 46.9 °F 44.8 °F 29.3 in WSW 8.7 mph 11 mph 92 % 0 in
16:49 47.7 °F 45.9 °F 29.3 in SSW 4.5 mph 11 mph 93 % 0 in
16:54 48.2 °F 46 °F 29.3 in SSW 8.1 mph 11 mph 92 % 0 in
16:59 48.4 °F 45.9 °F 29.3 in WSW 6 mph 11 mph 91 % 0 in
17:04 48.6 °F 45.9 °F 29.3 in SW 12.3 mph 12.3 mph 90 % 0 in
17:09 48.6 °F 45 °F 29.3 in SW 13 mph 28 mph 87 % 0 in
17:14 48.4 °F 44.1 °F 29.3 in West 10.7 mph 28 mph 85 % 0 in
17:19 48.2 °F 43 °F 29.3 in West 22.1 mph 22.1 mph 82 % 0 in
17:24 48 °F 41.5 °F 29.3 in WSW 19.7 mph 24.2 mph 78 % 0 in
17:29 47.3 °F 41.2 °F 29.3 in West 16.6 mph 24.2 mph 79 % 0 in
17:34 47.1 °F 41.5 °F 29.3 in WSW 15.2 mph 22.4 mph 81 % 0 in
17:39 47.1 °F 42.1 °F 29.3 in WSW 13 mph 19.5 mph 82 % 0 in
17:44 46.9 °F 41.7 °F 29.3 in West 17.2 mph 20.6 mph 82 % 0 in
17:49 47.1 °F 42.1 °F 29.3 in West 12.1 mph 25.7 mph 82 % 0 in
17:54 47.1 °F 42.3 °F 29.3 in WSW 16.1 mph 25.7 mph 83 % 0 in
17:59 47.1 °F 42.1 °F 29.3 in WSW 13 mph 17.4 mph 82 % 0 in
18:04 46.9 °F 41.5 °F 29.3 in WSW 15.4 mph 20.6 mph 81 % 0 in
18:09 46.8 °F 41.4 °F 29.4 in WSW 12.5 mph 20.6 mph 81 % 0 in
18:14 46.6 °F 41.4 °F 29.4 in West 12.8 mph 19.5 mph 82 % 0 in
18:19 46.2 °F 41.2 °F 29.4 in SW 11.4 mph 15.4 mph 82 % 0 in
18:24 46 °F 41.2 °F 29.4 in WSW 12.8 mph 13.4 mph 83 % 0 in
18:29 45.9 °F 41.2 °F 29.4 in WSW 8.7 mph 13.4 mph 84 % 0 in
18:34 45.3 °F 41.2 °F 29.4 in WSW 10.3 mph 13.4 mph 85 % 0.18 in
18:39 45.3 °F 41.5 °F 29.4 in WSW 10.3 mph 14.5 mph 86 % 0 in
18:44 45.1 °F 41.4 °F 29.4 in WSW 8.1 mph 14.5 mph 86 % 0 in
18:49 45.1 °F 41.5 °F 29.4 in WSW 9.8 mph 12.3 mph 87 % 0 in
18:54 45.1 °F 41.4 °F 29.4 in WSW 10.1 mph 12.3 mph 87 % 0 in
18:59 45 °F 41.2 °F 29.4 in WSW 6.5 mph 10.1 mph 87 % 0 in
19:04 44.8 °F 41.4 °F 29.4 in WSW 8.5 mph 10.3 mph 88 % 0 in
19:09 44.8 °F 41.7 °F 29.4 in SW 9.4 mph 11 mph 89 % 0 in
19:14 45 °F 41.7 °F 29.4 in WSW 10.1 mph 13 mph 89 % 0 in
19:19 44.8 °F 41.9 °F 29.4 in SW 11 mph 13 mph 90 % 0 in
19:24 44.8 °F 41.9 °F 29.4 in WSW 10.7 mph 15.4 mph 90 % 0 in
19:29 44.4 °F 41.7 °F 29.4 in WSW 7.6 mph 15.4 mph 90 % 0 in
19:34 44.4 °F 41.7 °F 29.4 in WSW 7.8 mph 14.8 mph 90 % 0 in
19:39 44.4 °F 41.7 °F 29.4 in West 15.2 mph 15.2 mph 90 % 0 in
19:44 44.8 °F 42.3 °F 29.4 in WSW 9.8 mph 15.2 mph 91 % 0 in
19:49 44.8 °F 41.9 °F 29.4 in WSW 11 mph 14.8 mph 90 % 0 in
19:54 44.4 °F 41.7 °F 29.4 in WSW 9.8 mph 15.4 mph 90 % 0 in
19:59 44.4 °F 41.7 °F 29.4 in WSW 12.3 mph 16.8 mph 90 % 0 in
20:04 44.4 °F 41.7 °F 29.4 in WSW 10.5 mph 16.8 mph 90 % 0 in
20:09 44.2 °F 41.4 °F 29.4 in SW 10.3 mph 17 mph 89 % 0 in
20:14 44.2 °F 41.4 °F 29.4 in WSW 11.2 mph 17 mph 90 % 0 in
20:19 44.1 °F 41 °F 29.4 in WSW 8.5 mph 13.2 mph 89 % 0 in
20:24 44.1 °F 41 °F 29.4 in SW 8.5 mph 13.2 mph 89 % 0 in
20:29 44.1 °F 41 °F 29.4 in SW 9.6 mph 11.2 mph 89 % 0 in
20:34 44.1 °F 41 °F 29.4 in SW 7.8 mph 11.2 mph 89 % 0 in
20:35 44.1 °F 41 °F 29.4 in SW 7.4 mph 11.2 mph 89 % 0 in
20:40 44.1 °F 41 °F 29.4 in SSW 8.1 mph 11 mph 89 % 0 in
20:45 44.1 °F 41 °F 29.4 in SW 7.6 mph 12.5 mph 89 % 0 in
20:50 44.1 °F 40.6 °F 29.4 in SW 9.2 mph 12.5 mph 88 % 0 in
20:55 44.1 °F 40.6 °F 29.4 in WSW 7.6 mph 12.8 mph 88 % 0 in
21:00 44.2 °F 40.8 °F 29.4 in SSW 8.1 mph 12.8 mph 88 % 0 in
21:05 44.2 °F 41 °F 29.4 in SSW 5.8 mph 11.2 mph 88 % 0 in
21:11 44.2 °F 40.6 °F 29.4 in SW 5.8 mph 12.1 mph 87 % 0 in
21:16 44.2 °F 41 °F 29.4 in SW 11.4 mph 12.8 mph 88 % 0 in
21:21 44.2 °F 41 °F 29.4 in WSW 13.2 mph 14.5 mph 88 % 0 in
21:26 44.2 °F 41 °F 29.4 in SSW 11 mph 18.1 mph 88 % 0 in
21:31 44.4 °F 41.5 °F 29.4 in SW 14.8 mph 18.1 mph 89 % 0 in
21:36 44.4 °F 41.5 °F 29.4 in WSW 10.1 mph 17 mph 89 % 0 in
21:41 44.4 °F 41.5 °F 29.4 in SW 11 mph 13 mph 89 % 0 in
21:46 44.4 °F 42.1 °F 29.4 in SSW 10.1 mph 13 mph 91 % 0 in
21:51 44.2 °F 41.9 °F 29.4 in SW 10.7 mph 12.8 mph 91 % 0 in
21:54 44.2 °F 41.9 °F 29.4 in SSW 12.8 mph 12.8 mph 91 % 0 in
21:59 44.2 °F 41.9 °F 29.4 in SSW 9.6 mph 15.9 mph 91 % 0 in
22:04 44.2 °F 41.9 °F 29.4 in SW 14.8 mph 17.9 mph 91 % 0 in
22:09 44.2 °F 41.7 °F 29.4 in SSW 13.2 mph 17.9 mph 91 % 0 in
22:14 44.1 °F 41.7 °F 29.4 in SSW 10.7 mph 15.2 mph 92 % 0 in
22:24 43.9 °F 42.3 °F 29.4 in SSW 13 mph 14.3 mph 94 % 0.02 in
22:29 43.9 °F 42.4 °F 29.4 in SSW 9.8 mph 14.8 mph 95 % 0.04 in
22:34 43.9 °F 42.8 °F 29.4 in SW 10.7 mph 17.4 mph 96 % 0.04 in
22:39 43.9 °F 42.8 °F 29.4 in SW 10.3 mph 17.4 mph 96 % 0.04 in
22:44 43.9 °F 42.8 °F 29.4 in SW 11 mph 17.2 mph 96 % 0.04 in
22:49 43.9 °F 42.8 °F 29.4 in WSW 8.9 mph 15.2 mph 96 % 0.04 in
22:54 43.9 °F 43 °F 29.4 in WSW 7.6 mph 13.2 mph 97 % 0.04 in
22:59 43.5 °F 42.8 °F 29.4 in WSW 13 mph 13.2 mph 97 % 0.04 in
23:04 43.9 °F 43 °F 29.4 in West 7.6 mph 13 mph 97 % 0.14 in
23:09 43.9 °F 43 °F 29.4 in WSW 7.4 mph 13 mph 97 % 0.14 in
23:14 44.1 °F 43.5 °F 29.4 in WSW 13 mph 14.8 mph 98 % 0.14 in
23:19 44.1 °F 43.5 °F 29.4 in WSW 12.1 mph 15.2 mph 98 % 0.14 in
23:24 44.1 °F 43.5 °F 29.4 in WSW 11.9 mph 15.2 mph 98 % 0.11 in
23:29 44.1 °F 43.5 °F 29.4 in WSW 7.6 mph 13.4 mph 98 % 0.09 in
23:34 44.1 °F 43.5 °F 29.4 in WSW 10.3 mph 13.4 mph 98 % 0.11 in
23:39 44.1 °F 43.5 °F 29.4 in WSW 11.2 mph 14.1 mph 98 % 0.11 in
23:44 44.1 °F 43.5 °F 29.4 in WSW 11 mph 14.1 mph 98 % 0.11 in
23:49 44.1 °F 43.5 °F 29.4 in West 7.8 mph 12.5 mph 98 % 0.11 in
23:54 44.2 °F 43.5 °F 29.4 in WSW 3.1 mph 12.3 mph 98 % 0.11 in
23:59 44.2 °F 43.5 °F 29.4 in WSW 4.3 mph 8.7 mph 98 % 0.11 in
Le Gheer Warneton
Courtoisie de Weather Underground - 2.25 mb

Mise a jour : 16-12-17 15:43:11
Généré par Cumulus 1.9.4 (1099)